EW8782 Weather Reports


time (UTC)temp
F
wind
direction
speed
knots
gust
knots
rain 1hr
in
rain 24hr
in
rain mn
in
humidity
%
barometer
mb
20260506072906 49 310 2.6 5.2 0.04 0.55 0.53 95 1006.4
20260506071904 49 309 3.5 10.4 0.04 0.55 0.52 95 1006.4
20260506071839 49 0 4.3 9.6 0.03 0.55 0.51 95 1006.3
20260506062342 49 329 5.2 9.6 0.03 0.53 0.48 96 1006.0
20260506060903 49 0 5.2 8.7 0.05 0.53 0.48 96 1006.0
20260506050904 49 7 4.3 8.7 0.08 0.46 0.43 96 1005.8
20260506044905 49 0 4.3 7.8 0.09 0.39 0.41 95 1005.8
20260506043903 49 0 2.6 7.8 0.09 0.39 0.39 95 1005.8
20260506042904 49 344 3.5 6.1 0.09 0.39 0.38 95 1005.8
20260506041904 49 343 3.5 5.2 0.08 0.39 0.36 95 1005.9
20260506040907 49 344 2.6 7.8 0.08 0.39 0.35 95 1005.9
20260506035903 48 340 3.5 7.8 0.08 0.31 0.34 95 1005.9
20260506035345 48 303 2.6 6.1 0.07 0.31 0.32 95 1006.0
20260506033903 48 345 3.5 7.8 0.07 0.31 0.31 95 1006.0
20260506032903 48 313 2.6 6.1 0.07 0.31 0.29 95 1006.1
20260506031904 48 327 1.7 8.7 0.08 0.31 0.28 95 1006.1
20260506030903 49 317 2.6 9.6 0.09 0.31 0.27 95 1006.2
20260506025904 49 348 3.5 7.8 0.08 0.23 0.26 95 1006.2
20260506024902 49 0 3.5 8.7 0.09 0.23 0.25 95 1006.4
20260506023903 49 354 3.5 6.1 0.09 0.23 0.24 95 1006.4
20260506022903 49 314 2.6 8.7 0.08 0.23 0.21 95 1006.4
20260506021905 49 303 3.5 9.6 0.06 0.23 0.20 95 1006.5
20260506020905 49 351 4.3 7.8 0.06 0.23 0.19 95 1006.5
20260506015904 49 348 1.7 7.8 0.06 0.17 0.18 95 1006.5
20260506014904 49 14 4.3 10.4 0.05 0.17 0.17 95 1006.6
20260506013902 49 333 5.2 7.8 0.04 0.17 0.15 95 1006.6
20260506012903 49 0 4.3 10.4 0.04 0.17 0.14 95 1006.6
20260506012347 49 0 3.5 9.6 0.05 0.17 0.13 95 1006.7
20260506010904 49 353 5.2 8.7 0.05 0.17 0.13 95 1006.8
20260506010342 49 0 4.3 8.7 0.05 0.13 0.13 95 1006.8
20260506004904 49 0 5.2 8.7 0.05 0.13 0.12 95 1006.8
20260506003903 49 0 3.5 7.8 0.05 0.13 0.11 95 1007.0
20260506002905 49 4 4.3 8.7 0.05 0.13 0.09 95 1007.0
20260506001903 49 302 3.5 8.7 0.05 0.13 0.09 95 1007.2
20260506000903 50 0 6.1 11.3 0.05 0.13 0.09 95 1007.2
20260505235905 50 0 3.5 9.6 0.05 0.08 0.08 95 1007.3
20260505234905 50 7 3.5 8.7 0.04 0.08 0.07 95 1007.3
20260505233903 50 321 4.3 8.7 0.04 0.08 0.06 95 1007.4
20260505232904 50 331 3.5 9.6 0.03 0.08 0.06 94 1007.4
20260505231906 50 343 4.3 7.8 0.03 0.08 0.05 95 1007.5
20260505230908 50 0 3.5 11.3 0.03 0.08 0.04 95 1007.5
20260505225904 50 358 6.1 8.7 0.03 0.05 0.03 95 1007.5
20260505224904 50 323 4.3 9.6 0.04 0.05 0.03 95 1007.7
20260505223904 50 319 4.3 7.8 0.03 0.05 0.02 94 1007.7
20260505222903 50 0 6.1 10.4 0.04 0.05 0.02 94 1007.7
20260505221905 51 351 4.3 9.6 0.03 0.05 0.02 94 1007.8
20260505220903 51 0 5.2 9.6 0.03 0.05 0.01 94 1007.8
20260505215903 51 0 6.1 14.8 0.02 0.02 0.05 94 1007.7
20260505214904 51 20 3.5 9.6 0.02 0.02 0.04 94 1007.8
20260505213903 51 0 6.1 12.2 0.02 0.02 0.03 94 1007.9
20260505212902 51 0 5.2 8.7 0.02 0.02 0.03 94 1007.9
20260505212337 51 27 4.3 10.4 0.02 0.02 0.03 94 1007.9
20260505210902 51 353 4.3 8.7 0.02 0.02 0.02 94 1008.0
20260505205903 51 34 5.2 13.0 0.02 0.01 0.02 94 1008.1
20260505204902 51 355 4.3 10.4 0.01 0.01 0.02 94 1008.2
20260505203901 51 14 6.1 10.4 0.01 0.01 0.02 94 1008.1
20260505202902 52 16 5.2 10.4 0.02 0.01 0.02 94 1008.1
20260505201901 52 0 7.0 11.3 0.02 0.01 0.02 94 1008.1
20260505200902 51 28 6.1 12.2 0.01 0.01 0.01 93 1008.0
20260505200336 51 31 6.1 12.2 0.01 0.00 0.01 93 1008.0
20260505195339 51 34 6.1 10.4 0.01 0.00 0.01 93 1008.0
20260505193900 51 25 7.0 13.0 0.01 0.01 0.00 93 1007.9
20260505192901 51 17 7.0 13.0 0.00 0.01 0.00 93 1008.0
20260505192336 52 10 7.0 15.6 0.00 0.01 0.00 92 1007.9
20260505191336 52 0 7.8 11.3 0.00 0.01 0.00 92 1007.9
20260505185859 52 10 5.2 13.0 0.00 0.01 0.00 92 1007.9
20260505184859 52 18 4.3 8.7 0.00 0.01 0.00 92 1007.8
20260505183859 52 20 5.2 10.4 0.00 0.01 0.00 91 1007.8
20260505182900 52 17 3.5 11.3 0.00 0.01 0.00 90 1007.8
20260505181900 52 28 7.8 12.2 0.00 0.01 0.00 90 1007.8
20260505180858 52 14 6.1 10.4 0.00 0.01 0.00 89 1007.8
20260505175858 53 0 4.3 11.3 0.00 0.02 0.00 89 1008.0
20260505174859 52 42 5.2 11.3 0.00 0.02 0.00 89 1007.9
20260505173859 52 51 6.1 13.9 0.00 0.02 0.00 89 1008.1
20260505172900 53 21 4.3 12.2 0.00 0.04 0.00 90 1008.0
20260505172348 53 13 8.7 11.3 0.00 0.06 0.00 90 1007.9
20260505171337 53 28 7.0 12.2 0.00 0.06 0.00 90 1007.9
20260505165858 53 0 7.0 10.4 0.00 0.06 0.00 89 1008.0
20260505165336 53 8 7.0 11.3 0.00 0.06 0.00 90 1008.1
20260505163856 53 6 7.0 11.3 0.00 0.06 0.00 90 1008.1
20260505162857 53 0 7.8 12.2 0.00 0.07 0.00 90 1008.0
20260505161856 53 0 5.2 13.0 0.00 0.07 0.00 90 1007.9
20260505160855 53 30 7.8 12.2 0.00 0.07 0.00 90 1008.0
20260505153337 53 0 6.1 11.3 0.00 0.07 0.00 89 1008.3
20260505151855 53 39 6.1 11.3 0.00 0.07 0.00 89 1008.4
20260505150857 53 336 6.1 11.3 0.00 0.07 0.00 89 1008.4
20260505124853 53 24 5.2 10.4 0.00 0.07 0.00 89 1009.1
20260505123850 53 10 6.1 11.3 0.00 0.07 0.00 89 1009.1
20260505122851 53 6 7.8 11.3 0.00 0.07 0.00 88 1009.2
20260505121850 53 21 7.0 12.2 0.00 0.07 0.00 88 1009.2
20260505120850 53 35 7.0 12.2 0.00 0.07 0.00 88 1009.2
20260505115853 54 0 6.1 11.3 0.00 0.07 0.00 88 1009.4
20260505114851 54 34 5.2 13.9 0.00 0.07 0.00 88 1009.4
20260505113849 55 37 6.1 12.2 0.00 0.07 0.00 88 1009.5
20260505112850 54 20 7.8 13.0 0.00 0.07 0.00 89 1009.4
20260505111849 54 23 4.3 12.2 0.00 0.07 0.00 89 1009.5
20260505110851 54 0 5.2 10.4 0.00 0.07 0.00 89 1009.5
20260505101848 53 0 5.2 13.0 0.00 0.07 0.00 90 1009.7
20260505100848 53 23 4.3 12.2 0.00 0.07 0.00 91 1009.7
20260505095845 53 358 7.0 13.0 0.00 0.07 0.00 91 1009.7
20260505094849 53 0 7.8 13.0 0.00 0.07 0.00 92 1009.7
20260505093846 53 21 6.1 10.4 0.00 0.07 0.00 93 1009.7
20260505092847 53 0 6.1 10.4 0.00 0.07 0.00 93 1009.8
20260505091846 53 28 4.3 10.4 0.00 0.07 0.00 93 1009.8
20260505090846 53 0 5.2 10.4 0.00 0.07 0.00 94 1009.9
20260505085845 53 31 5.2 10.4 0.00 0.07 0.00 94 1009.7
20260505084845 53 31 6.1 12.2 0.00 0.07 0.00 94 1009.8
20260505083848 53 329 4.3 9.6 0.00 0.07 0.00 94 1009.8
20260505082847 53 347 5.2 8.7 0.00 0.07 0.00 94 1009.7
20260505081847 53 18 2.6 10.4 0.00 0.07 0.00 94 1009.7